User: anonymous   Login
Location: Unspecified
(0.0000°N, 0.0000°E)
Time: 20:07:08
(UTC+00:00)
Language:

COSMOS 2453 - Orbit

View from above orbital plane
View from above orbital plane
View from above satellite
View from above satellite

Ground track
Ground track

The orbit data is extracted from the following two-line orbital elements,

1 35500U 09036C   24151.54817163  .00000017  00000-0  51734-4 0  9991
2 35500  82.4887 192.3401 0006817   4.7511 355.3632 12.41495049675208
Epoch (UTC): 30 May 2024 13:09:22
Eccentricity: 0.0006817
inclination: 82.4887°
perigee height: 1495 km
apogee height: 1505 km
right ascension of ascending node: 192.3401°
argument of perigee: 4.7511°
revolutions per day: 12.41495049
mean anomaly at epoch: 355.3632°
orbit number at epoch: 67520

The dashed part of the orbit path shows where the satellite is in the earth's shadow,  

DLR